Regional Weather Roundup
Issued by NWS

Home | Current Version | Previous Version | Graphics & Text | Print | Product List | Glossary On
Versions: 1 2 3 4 5 6 7 8 9 10 11 12 13 14 15 16 17 18 19 20 21 22 23 24 25 26 27 28 29 30 31 32 33 34 35 36 37 38 39 40 41 42 43 44 45 46 47 48 49 50
000
ASUS43 KBIS 261720
RWRND

NORTH DAKOTA REGIONAL WEATHER ROUNDUP
NATIONAL WEATHER SERVICE BISMARCK ND
1100 AM CST MON JAN 26 2015

NOTE: "FAIR" INDICATES FEW OR NO CLOUDS BELOW 12,000 FEET WITH NO
SIGNIFICANT WEATHER AND/OR OBSTRUCTIONS TO VISIBILITY.


NDZ001>003-009>011-017-261800-
NORTHWEST NORTH DAKOTA

CITY           SKY/WX    TMP DP  RH WIND       PRES   REMARKS
WILLISTON      SUNNY     42  31  64 SW3       29.98R
MINOT          CLOUDY    39  31  72 W17       29.93R
MINOT AFB      CLOUDY    37  36  95 W13       29.92R
$$

NDZ018>021-031>035-040>046-261800-
SOUTHWEST NORTH DAKOTA

CITY           SKY/WX    TMP DP  RH WIND       PRES   REMARKS
BISMARCK       MOSUNNY   45  31  58 NW14      29.95R
DICKINSON      MOSUNNY   43  33  68 NW13      29.97R
GARRISON         N/A     40  32  73 NW12      29.95R
HETTINGER ARPT MOSUNNY   45  33  63 W14       30.01R
$$

NDZ004>008-012>016-024-026-027-054-261800-
NORTHEAST NORTH DAKOTA

CITY           SKY/WX    TMP DP  RH WIND       PRES   REMARKS
GRAND FORKS    CLOUDY    40  31  70 NW18G24   29.78R
GRND FRKS AFB  CLOUDY    40  31  70 N16       29.80R
DEVILS LAKE    SUNNY     36  30  80 NW14      29.84R
$$

NDZ022-023-025-028>030-036>039-047>053-261800-
SOUTHEAST NORTH DAKOTA

CITY           SKY/WX    TMP DP  RH WIND       PRES   REMARKS
FARGO          MOSUNNY   42  32  67 NW21      29.78R
JAMESTOWN      SUNNY     39  31  72 NW21G26   29.86R
$$




USA.gov is the U.S. government's official web portal to all federal, state and local government web resources and services.